TimeCDT,TemperatureF,Dew PointF,Humidity,Sea Level PressureIn,VisibilityMPH,Wind Direction,Wind SpeedMPH,Gust SpeedMPH,PrecipitationIn,Events,Conditions,WindDirDegrees,DateUTC
12:53 AM,80.1,75.9,87,29.85,10.0,SSE,8.1,-,N/A,,Mostly Cloudy,160,2013-10-01 05:53:00
1:02 AM,80.6,75.2,84,29.85,10.0,SSE,6.9,-,N/A,,Scattered Clouds,160,2013-10-01 06:02:00
1:53 AM,81.0,75.9,85,29.85,10.0,SSE,10.4,-,N/A,,Mostly Cloudy,150,2013-10-01 06:53:00
2:53 AM,80.1,75.0,85,29.84,9.0,SSE,9.2,-,0.00,,Mostly Cloudy,150,2013-10-01 07:53:00
3:44 AM,78.8,75.2,89,29.85,5.0,SW,8.1,-,0.02,Rain-Thunderstorm,Heavy Rain,230,2013-10-01 08:44:00
3:53 AM,79.0,75.0,88,29.84,5.0,SSE,4.6,-,0.03,Rain-Thunderstorm,Rain,160,2013-10-01 08:53:00
4:12 AM,78.8,75.2,89,29.84,5.0,South,3.5,-,0.02,Rain,Rain,170,2013-10-01 09:12:00
4:53 AM,79.0,75.9,90,29.83,4.0,Calm,Calm,-,0.07,Rain,Heavy Rain,0,2013-10-01 09:53:00
5:12 AM,80.6,77.0,89,29.84,9.0,North,-9999.0,-,0.00,,Overcast,0,2013-10-01 10:12:00
5:49 AM,77.0,71.6,83,29.85,6.0,SW,13.8,27.6,0.01,Rain,Light Rain,220,2013-10-01 10:49:00
5:53 AM,75.9,72.0,87,29.85,6.0,North,-9999.0,-,0.02,Rain,Rain,0,2013-10-01 10:53:00
6:35 AM,80.6,75.2,84,29.85,10.0,South,3.5,-,0.02,,Overcast,190,2013-10-01 11:35:00
6:53 AM,81.0,77.0,88,29.85,9.0,South,8.1,-,0.03,Rain,Rain,180,2013-10-01 11:53:00
7:25 AM,80.6,75.2,84,29.86,10.0,South,8.1,-,0.00,,Mostly Cloudy,180,2013-10-01 12:25:00
7:38 AM,78.8,75.2,89,29.86,10.0,WSW,12.7,18.4,0.00,,Mostly Cloudy,250,2013-10-01 12:38:00
7:46 AM,77.0,73.4,89,29.87,9.0,SW,8.1,20.7,0.00,Rain-Thunderstorm,Light Rain,230,2013-10-01 12:46:00
7:58 AM,75.2,73.4,94,29.88,0.8,SW,16.1,23.0,0.08,Rain-Thunderstorm,Heavy Thunderstorms and Rain,230,2013-10-01 12:58:00
8:14 AM,77.0,73.4,89,29.88,1.8,SSW,8.1,-,0.35,Rain-Thunderstorm,Thunderstorms and Rain,210,2013-10-01 13:14:00
8:18 AM,77.0,73.4,89,29.88,2.0,South,3.5,-,0.38,Rain,Heavy Rain,190,2013-10-01 13:18:00
8:33 AM,77.0,75.2,94,29.89,6.0,SW,8.1,-,0.39,Rain,Light Rain,220,2013-10-01 13:33:00
8:48 AM,78.8,73.4,83,29.89,10.0,WSW,3.5,-,0.39,Thunderstorm,Partly Cloudy,240,2013-10-01 13:48:00
8:53 AM,78.1,73.9,87,29.89,10.0,WSW,5.8,-,0.39,Thunderstorm,Scattered Clouds,240,2013-10-01 13:53:00
9:13 AM,78.8,75.2,89,29.91,9.0,SW,8.1,-,N/A,Thunderstorm,Thunderstorm,230,2013-10-01 14:13:00
9:34 AM,77.0,73.4,89,29.92,10.0,South,5.8,-,0.00,Rain-Thunderstorm,Light Rain,180,2013-10-01 14:34:00
9:53 AM,77.0,72.0,84,29.93,10.0,Calm,Calm,-,0.00,Thunderstorm,Mostly Cloudy,0,2013-10-01 14:53:00
9:58 AM,77.0,71.6,83,29.92,10.0,ENE,3.5,-,N/A,Thunderstorm,Mostly Cloudy,70,2013-10-01 14:58:00
10:31 AM,77.0,73.4,89,29.92,10.0,East,3.5,-,N/A,,Partly Cloudy,100,2013-10-01 15:31:00
10:53 AM,78.1,73.0,84,29.93,10.0,East,3.5,-,N/A,,Scattered Clouds,80,2013-10-01 15:53:00
11:22 AM,78.8,73.4,83,29.93,7.0,East,4.6,-,0.02,,Mostly Cloudy,80,2013-10-01 16:22:00
11:26 AM,78.8,73.4,83,29.93,1.5,SE,4.6,-,0.12,Rain,Heavy Rain,140,2013-10-01 16:26:00
11:35 AM,77.0,75.2,94,29.94,1.0,East,5.8,-,0.20,Rain,Heavy Rain,100,2013-10-01 16:35:00
11:50 AM,75.2,73.4,94,29.94,8.0,ESE,12.7,19.6,0.21,Rain,Light Rain,120,2013-10-01 16:50:00
11:53 AM,75.9,73.0,91,29.94,10.0,ESE,10.4,-,0.21,Rain,Light Rain,120,2013-10-01 16:53:00
12:09 PM,75.2,71.6,89,29.93,1.8,ESE,13.8,-,0.11,Rain,Heavy Rain,120,2013-10-01 17:09:00
12:27 PM,77.0,73.4,89,29.90,3.0,South,8.1,-,0.24,Rain,Light Rain,190,2013-10-01 17:27:00
12:53 PM,79.0,73.9,84,29.91,10.0,SSW,15.0,-,0.24,,Scattered Clouds,200,2013-10-01 17:53:00
1:53 PM,79.0,73.9,84,29.88,10.0,WSW,3.5,-,N/A,,Clear,240,2013-10-01 18:53:00
2:53 PM,81.0,73.9,79,29.90,10.0,Calm,Calm,-,N/A,,Scattered Clouds,0,2013-10-01 19:53:00
4:53 PM,81.0,73.0,77,29.87,10.0,ESE,11.5,-,N/A,,Clear,120,2013-10-01 21:53:00
5:53 PM,80.1,73.9,81,29.87,10.0,ESE,9.2,-,N/A,,Clear,120,2013-10-01 22:53:00
6:53 PM,79.0,73.0,82,29.87,10.0,ESE,13.8,-,N/A,,Clear,120,2013-10-01 23:53:00
7:53 PM,78.1,73.0,84,29.88,10.0,SE,10.4,-,N/A,,Clear,130,2013-10-02 00:53:00
8:53 PM,78.1,73.0,84,29.89,10.0,South,5.8,-,N/A,,Clear,180,2013-10-02 01:53:00
9:53 PM,75.9,73.9,94,29.91,8.0,SE,4.6,-,N/A,,Clear,130,2013-10-02 02:53:00
10:53 PM,75.9,73.0,91,29.93,9.0,ESE,5.8,-,N/A,,Clear,110,2013-10-02 03:53:00
11:53 PM,75.9,73.0,91,29.93,9.0,ESE,4.6,-,N/A,,Clear,110,2013-10-02 04:53:00